#timestamp,LO_Frequency,Hit,StdDev 
1627920015.4,286047000.5,N
1627920035.2,286047000.0,N
1627920055.0,286047002.6,Y
1627920055.9,286047002.6,P
1627920075.8,286046999.8,N
1627920095.6,286046999.9,N
1627920115.5,286047000.5,N
1627920135.3,286047001.2,N
1627920155.1,286046999.4,N
1627920175.9,286046999.3,N
1627920195.7,286046998.4,N
1627920215.5,286046997.3,N
1627920235.4,286046995.4,Y
1627920255.2,286046994.6,P
1627920275.1,286046991.8,P
1627920276.0,286046991.8,N
1627920295.8,286046994.4,N
1627920315.6,286046993.3,N
1627920335.5,286046995.8,N
1627920355.3,286046996.2,N
1627920375.2,286046996.2,N
1627920395.9,286046996.2,N
1627920415.7,286046995.7,N
1627920435.6,286046997.9,N
1627920455.4,286046998.0,N
1627920475.2,286046997.7,N
1627920495.1,286046997.1,N
1627920496.0,286046997.1,N
1627920515.8,286046997.4,N
1627920535.7,286046996.6,N
1627920555.5,286046998.7,N
1627920575.3,286046999.3,N
1627920595.2,286046998.6,N
1627920615.0,286046998.2,N
1627920615.9,286046998.2,N
1627920635.7,286047002.7,N
1627920655.6,286047000.4,N
1627920675.4,286047002.8,N
1627920695.3,286047001.8,N
1627920715.1,286047004.1,N
1627920735.8,286047003.1,N
1627920755.7,286047003.8,N
1627920775.5,286047003.5,N
1627920795.4,286047004.1,N
1627920815.2,286047001.3,N
1627920835.0,286047001.5,N
1627920835.9,286047001.5,N
1627920855.8,286047004.1,N
1627920875.6,286047003.9,N
1627920895.4,286047001.9,N
1627920915.3,286047002.6,N
1627920935.1,286047001.7,N
1627920955.9,286047002.1,N
1627920975.7,286047002.1,N
1627920995.5,286047002.3,N
1627921015.4,286047002.1,N
1627921035.2,286047001.7,N
1627921055.0,286047003.9,N
1627921055.9,286047003.9,N
1627921075.8,286047003.9,N
1627921095.6,286047003.2,N
1627921115.5,286047004.4,N
1627921135.3,286047003.7,N
1627921155.1,286047003.1,N
1627921175.9,286047002.5,N
1627921195.7,286047002.7,N
1627921215.5,286047002.7,N
1627921235.4,286047000.2,N
1627921255.2,286047000.0,N
1627921275.1,286047000.3,N
1627921276.0,286047000.3,N
1627921295.8,286047000.4,N
1627921315.6,286047002.4,N
1627921335.5,286047000.3,N
1627921355.3,286047000.2,N
1627921375.1,286046999.8,N
1627921395.9,286047000.8,N
1627921415.7,286047000.7,N
1627921435.6,286046998.7,N
1627921455.4,286046998.4,N
1627921475.2,286046998.7,N
1627921495.1,286046998.5,N
1627921496.0,286046998.5,N
1627921515.8,286046998.7,N
1627921535.6,286046998.1,N
1627921555.5,286046999.3,N
1627921575.3,286046998.9,N
1627921595.2,286046999.4,N
1627921615.9,286046996.7,N
1627921635.7,286046997.2,N
1627921655.6,286046996.3,N
1627921675.4,286046995.9,N
1627921695.2,286046995.7,N
1627921715.1,286046995.8,N
1627921716.0,286046995.8,N
1627921735.8,286046995.1,N
1627921755.7,286046997.0,N
1627921775.5,286046998.0,N
1627921795.3,286046995.2,N
1627921815.2,286046995.0,N
1627921835.0,286046995.3,N
1627921835.9,286046995.3,N
1627921855.7,286046997.8,N
1627921875.6,286046997.4,N
1627921895.4,286046997.6,N
1627921915.3,286046996.1,N
1627921935.1,286046996.0,N
1627921936.0,286046996.0,N
1627921955.8,286046997.5,N
1627921975.7,286046994.9,Y
1627921995.5,286047000.4,P
1627922015.4,286047000.1,N
1627922035.2,286047001.2,N
1627922055.0,286046998.3,N
1627922055.9,286046998.3,N
1627922075.8,286046999.1,N
1627922095.6,286046999.4,N
1627922115.4,286047000.6,N
1627922135.3,286046998.2,N
1627922155.1,286047000.8,N
1627922175.9,286047002.8,N
1627922195.7,286047000.6,N
1627922215.5,286047002.6,N
1627922235.4,286046999.8,N
1627922255.2,286047000.4,N
1627922275.0,286047000.8,N
1627922275.9,286047000.8,N
1627922295.8,286047000.6,N
1627922315.6,286047000.4,N
1627922335.5,286047000.2,N
1627922355.3,286046999.9,N
1627922375.1,286047002.5,N
1627922395.9,286046999.8,N
1627922415.7,286047000.0,N
1627922435.5,286047002.5,N
1627922455.4,286047000.0,N
1627922475.2,286047002.8,N
1627922495.1,286046999.8,N
1627922496.0,286046999.8,N
1627922515.8,286047002.2,N
1627922535.6,286047002.0,N
1627922555.5,286047000.4,N
1627922575.3,286047000.0,N
1627922595.1,286047002.1,N
1627922615.9,286047000.1,N
1627922635.7,286047002.3,N
1627922655.6,286047002.5,N
1627922675.4,286047001.9,N
1627922695.2,286047002.5,N
1627922715.1,286047001.4,N
1627922716.0,286047001.4,N
1627922735.8,286047002.0,N
1627922755.6,286047002.1,N
1627922775.5,286047002.3,N
1627922795.3,286047002.2,N
1627922815.2,286047002.0,N
1627922835.9,286047001.7,N
1627922855.7,286047001.9,N
1627922875.6,286047001.6,N
1627922895.4,286047002.2,N
1627922915.2,286047002.1,N
1627922935.1,286047001.3,N
1627922936.0,286047001.3,N
1627922955.8,286047003.7,Y
1627922975.7,286047003.1,P
1627922995.5,286047003.6,P
1627923015.3,286047001.7,N
1627923035.2,286047004.3,Y
1627923055.0,286046999.8,P
1627923055.9,286046999.8,N
1627923075.8,286046999.8,N
1627923095.6,286046999.8,N
1627923115.4,286046999.9,N
1627923135.3,286047000.9,N
1627923155.1,286047000.6,N
1627923175.8,286046999.0,N
1627923195.7,286046999.5,N
1627923215.5,286046996.8,Y
1627923235.4,286046995.7,P
1627923255.2,286046995.5,N
1627923275.0,286046996.6,N
1627923275.9,286046996.6,N
1627923295.8,286046996.8,N
1627923315.6,286046999.0,N
1627923335.4,286047001.1,N
1627923355.3,286046998.3,N
1627923375.1,286046998.1,N
1627923395.9,286046998.1,N
1627923415.7,286047000.7,N
1627923435.5,286047000.8,N
1627923455.4,286046998.5,N
1627923475.2,286047001.2,N
1627923495.1,286046998.1,N
1627923496.0,286046998.1,N
1627923515.8,286046998.2,N
1627923535.6,286047000.8,N
1627923555.5,286046999.9,N
1627923575.3,286047001.2,N
1627923595.1,286047000.3,N
